Regional Weather Roundup
Issued by NWS

Home | Current Version | Previous Version | Text Only | Print | Product List | Glossary On
Versions: 1 2 3 4 5 6 7 8 9 10 11 12 13 14 15 16 17 18 19 20 21 22 23 24 25 26 27 28 29 30 31 32 33 34 35 36 37 38 39 40 41 42 43 44 45 46 47 48 49 50
497
ASUS44 KLIX 220905
RWRLA
LOUISIANA WEATHER ROUNDUP
NATIONAL WEATHER SERVICE NEW ORLEANS LA
400 AM CDT TUE JUL 22 2014

NOTE: "FAIR" INDICATES FEW OR NO CLOUDS BELOW 12,000 FEET WITH NO
      SIGNIFICANT WEATHER AND/OR OBSTRUCTIONS TO VISIBILITY.
      SKY/WX - SKY CONDITION AND SIGNIFICANT WEATHER.
      TMP - AIR TEMPERATURE.    DP   - DEWPOINT TEMPERATURE.
      RH  - RELATIVE HUMIDITY.  PRES - PRESSURE.
      HX  - HEAT INDEX.         WCI  - WIND CHILL INDEX.

*  THESE STATIONS ARE NOT NWS OR FAA STATIONS AND ARE NOT UNDER
   NWS QUALITY CONTROL.

LAZ040-048-061>063-065-066-069-221000-
SOUTHEAST LOUISIANA

CITY           SKY/WX    TMP DP  RH WIND       PRES   REMARKS
N.O. AUDUBON   NOT AVBL
N.O. INTL ARPT MOCLDY    77  73  87 CALM      29.99S
N.O. LAKEFRONT MOCLDY    82  73  74 N6        29.99F
N.O. DOWNTOWN* PTSUNNY   81  73  78 CALM      29.99F
SLIDELL        PTCLDY    73  71  93 CALM      29.99R
BATON ROUGE    CLEAR     73  70  90 NE3       29.99F
BOOTHVILLE     CLEAR     79  75  87 CALM      29.98F
BELLE CHASSE   PTCLDY    76  72  87 CALM      29.98S
BOGALUSA*      FAIR      72  68  88 CALM      30.01S
GALLIANO*      NOT AVBL
NEW ROADS*     FAIR      72  70  95 CALM      30.00S
GONZALES*      PTSUNNY   73  73 100 CALM      29.98F FOG
HAMMOND*       CLEAR     73  68  83 CALM      30.00F
HOUMA*         FOG       76  73  91 CALM      29.98F VSB 1/2
PORT FOURCHON* SUNNY     82  75  78 CALM      29.99F

$$

LAZ041-044-053-054-221000-
SOUTHWEST LOUISIANA

CITY           SKY/WX    TMP DP  RH WIND       PRES   REMARKS
LAKE CHARLES   PTCLDY    77  75  93 CALM      30.01R
LAFAYETTE      CLEAR     76  73  91 NE5       30.00S
PATTERSON      NOT AVBL
SALT POINT       N/A     80  77  90 CALM      29.98S
NEW IBERIA     CLEAR     76  73  91 CALM      30.00F
CHENAULT AIRPK CLEAR     77  73  89 CALM      30.02R

$$

LAZ027-028-221000-
CENTRAL LOUISIANA

CITY           SKY/WX    TMP DP  RH WIND       PRES   REMARKS
FORT POLK      CLOUDY    75  70  84 CALM      30.01F
ALEXANDRIA INT CLEAR     70  69  97 CALM      30.00F FOG
ALEXANDRIA     CLEAR     69  66  90 CALM      30.02F

$$

LAZ001-002-221000-
NORTHWEST LOUISIANA

CITY           SKY/WX    TMP DP  RH WIND       PRES   REMARKS
SHREVEPORT     CLEAR     70  68  93 CALM      30.03F
BARKSDALE AFB  CLEAR     68  68 100 CALM      30.04F
DTN SHREVEPORT CLEAR     69  67  93 CALM      30.04F FOG

$$

LAZ014-016-221000-
NORTHEAST LOUISIANA

CITY           SKY/WX    TMP DP  RH WIND       PRES   REMARKS
MONROE         CLEAR     70  69  97 CALM      30.04F
TALLULAH       CLEAR     71  69  93 CALM      30.02F

$$




USA.gov is the U.S. government's official web portal to all federal, state and local government web resources and services.